OpenBCM V1.07b12 (Linux)

Packet Radio Mailbox

DB0FHN

[JN59NK Nuernberg]

 Login: GUEST





  
I0OJJ  > KEPS     23.02.25 06:13l 326 Lines 15583 Bytes #999 (0) @ AMSAT
BID : ORB25054.1
Read: DJ6UX GUEST
Subj: 2Line Orbital Elements 25054.AMSAT
Path: DB0FHN<DB0FFL<OE5XBL<OE6XPE<DB0ERF<DK0WUE<PD0LPM<PI8ZTM<I0OJJ
Sent: 250223/0345z @:I0OJJ.ITA.EU [Rome] obcm1.08-6-g5b69
From: I0OJJ @ I0OJJ.ITA.EU (Gustavo)
To:   KEPS @ AMSAT
X-Info: This message was generated automatically


QST de W1STR

AMSAT Orbital Elements for Amateur Satellites in TLE Format
From Orbital Analysis Office
New England Sci-Tech STEM Education Center
Natick, MA February 23, 2025
To all radio amateurs


These element sets describe the orbits of various satellites 
in use by the amateur radio community. For details see:
www.amsat.org/keplerian-elements-formats/

A daily update of element sets is available at:
www.amsat.org/tle/daily-bulletin.txt
or without bulletin text:
www.amsat.org/tle/dailytle.txt


AO-07
1 07530U 74089B   25053.50037608 -.00000010  00000-0  22599-3 0  9999
2 07530 101.9942  56.6216 0012034 327.6366 201.0452 12.53686399300405
UO-11
1 14781U 84021B   25053.82881349  .00003023  00000-0  32896-3 0  9993
2 14781  97.7405  22.4360 0007196 341.9090  18.1870 14.88750473206753
AO-27
1 22825U 93061C   25053.57134321  .00000267  00000-0  11940-3 0  9992
2 22825  98.7525 114.5255 0009382  69.7658 290.4532 14.30734000638412
FO-29
1 24278U 96046B   25053.47071776  .00000020  00000-0  59542-4 0  9993
2 24278  98.5865 321.4062 0348896 260.0388  96.1214 13.53238133408286
NOAA-15
1 25338U 98030A   25053.80836466  .00000384  00000-0  17598-3 0  9995
2 25338  98.5475  81.4523 0009392 316.0610  43.9823 14.26890147393178
GO-32
1 25397U 98043D   25053.63127983  .00000264  00000-0  13456-3 0  9998
2 25397  98.9586  30.5862 0001956 126.5044 233.6314 14.24258307383282
ISS
1 25544U 98067A   25053.69905201  .00021979  00000-0  40182-3 0  9993
2 25544  51.6387 154.0683 0005832 301.6447 207.5607 15.49282428497408
NO-44
1 26931U 01043C   25053.34350308  .00000529  00000-0  22942-3 0  9998
2 26931  67.0507  45.0814 0005943 264.9819  95.0605 14.31627160221753
SO-50
1 27607U 02058C   25053.48446305  .00002901  00000-0  38579-3 0  9993
2 27607  64.5544 170.9794 0043621   0.7902 359.3264 14.81001571193365
CO-55
1 27844U 03031E   25053.73204738  .00000795  00000-0  36619-3 0  9990
2 27844  98.6793  63.3774 0010516 133.3636 226.8421 14.23833140123467
CO-57
1 27848U 03031J   25053.49063177  .00000683  00000-0  32147-3 0  9995
2 27848  98.6822  63.2239 0010145 149.6241 210.5527 14.23191461123133
RS-22
1 27939U 03042A   25053.83141763  .00002753  00000-0  44848-3 0  9995
2 27939  98.3151 220.7966 0011372 353.0493 114.3159 14.71808154145128
NOAA-18
1 28654U 05018A   25053.81174993  .00000368  00000-0  21837-3 0  9997
2 28654  98.8498 134.4693 0015070  74.7766 285.5072 14.13522551 18662
CO-58
1 28895U 05043F   25053.63462732  .00003867  00000-0  64893-3 0  9999
2 28895  98.2298 196.8064 0013940 286.3914  73.5759 14.70227058 31226
CO-65
1 32785U 08021C   25053.52747440  .00011165  00000-0  84652-3 0  9996
2 32785  97.7727  24.1150 0009549 207.7688 152.3027 15.02383759912997
AAUSAT2
1 32788U 08021F   25053.55342734  .00111874  00000-0  19903-2 0  9993
2 32788  97.6064  45.6658 0005727  74.7655 285.4229 15.49732087916612
CO-66
1 32791U 08021J   25053.43826188  .00020505  00000-0  11218-2 0  9995
2 32791  97.7189  31.4656 0005465 146.1512 214.0068 15.14277251914257
RS-30
1 32953U 08025A   25053.76690657  .00000028  00000-0  12893-3 0  9994
2 32953  82.5019 293.6301 0018727 280.0025  79.8941 12.43159143760256
NOAA-19
1 33591U 09005A   25053.80074660  .00000335  00000-0  20287-3 0  9994
2 33591  99.0118 117.8500 0012885 307.4305  52.5694 14.13291341827028
SRMSAT
1 37841U 11058D   25053.41150774  .00000639  00000-0  20369-3 0  9993
2 37841  19.9720  83.0404 0011621 327.1692  60.7634 14.11367084689951
ZACUBE-1
1 39417U 13066B   25053.62648432  .00011089  00000-0  10033-2 0  9998
2 39417  97.7670  11.4192 0047641  51.1730 309.3729 14.94708504608929
Delfi-N3xt
1 39428U 13066N   25053.52307636  .00016498  00000-0  17718-2 0  9993
2 39428  97.8370 332.5465 0088939 354.0869   5.9288 14.85739722603168
GOMX-1
1 39430U 13066Q   25053.69703523  .00003874  00000-0  61361-3 0  9997
2 39430  97.6992 278.8717 0134135 173.7915 186.4993 14.66872598599732
LO-74
1 39440U 13066AA  25053.57803581  .00006652  00000-0  69883-3 0  9994
2 39440  97.8384 359.0658 0064289 171.0813 189.1562 14.88262559605516
AO-73
1 39444U 13066AE  25053.43019855  .00016171  00000-0  12964-2 0  9990
2 39444  97.7506  15.3070 0042988  29.6881 330.6768 14.99458998607519
DTUSAT-2
1 40030U 14033W   25053.40074167  .00013913  00000-0  96758-3 0  9997
2 40030  98.0422  20.3069 0011722  67.8248 292.4221 15.05569972580253
EO-80
1 40032U 14033Y   25053.49333553  .00013293  00000-0  92247-3 0  9995
2 40032  98.0327  20.2037 0009489  19.6298 340.5291 15.05679776580245
XW-2C
1 40906U 15049H   25047.62605869  .06460715  25777-5  82494-3 0  9990
2 40906  97.4284  83.7622 0006300 238.5188 121.5494 16.35922890522636
LILACSAT-2
1 40908U 15049K   25053.79208255  .00018052  00000-0  52994-3 0  9991
2 40908  97.5165  71.7720 0010290 171.4718 188.6701 15.35156264521828
IO-86
1 40931U 15052B   25038.81889873  .00001817  00000-0  15548-3 0  9993
2 40931   6.0001 108.1159 0012838 187.7041 172.2889 14.78568669506492
Horyu-4
1 41340U 16012D   25053.56022393  .00029080  00000-0  96469-3 0  9993
2 41340  30.9994 128.2774 0006390  41.2082 318.9043 15.30035706496348
Lapan A3
1 41603U 16040E   25053.84839901  .00006116  00000-0  22205-3 0  9990
2 41603  97.1401  62.7140 0009359 294.4111  65.6152 15.28613064481471
CAS-2T
1 41847U 16066G   25053.57337616  .00003488  00000-0  50348-3 0  9992
2 41847  98.4307 128.9564 0348718 141.9997 220.6357 14.42989083435581
CAS-4B
1 42759U 17034B   25053.84538016  .00056771  00000-0  10398-2 0  9991
2 42759  43.0096 231.0694 0018224 265.7345  94.1432 15.48326495425972
CAS-4A
1 42761U 17034D   25053.80819859  .00058601  00000-0  10529-2 0  9997
2 42761  43.0133 229.2034 0019534 271.2221  88.6400 15.48834091425984
TechnoSat
1 42829U 17042E   25053.46204357  .00006513  00000-0  52162-3 0  9999
2 42829  97.3891 227.3455 0011811 291.1269  68.8693 15.00420471414658
AO-91
1 43017U 17073E   25053.17645964  .00014855  00000-0  79900-3 0  9991
2 43017  97.5486 286.7385 0181368 171.4544 188.9843 15.01850217393071
S-Net D
1 43186U 18014G   25053.28589010  .00010233  00000-0  63398-3 0  9995
2 43186  97.5717 317.3602 0008101 226.6121 133.4434 15.09935859386173
S-Net B
1 43187U 18014H   25053.29001150  .00009788  00000-0  60678-3 0  9992
2 43187  97.5723 317.3303 0008888 221.4982 138.5573 15.09920405386170
S-Net A
1 43188U 18014J   25053.28661385  .00009956  00000-0  61681-3 0  9996
2 43188  97.5732 317.4635 0008729 222.5023 137.5531 15.09940037386178
S-Net C
1 43189U 18014K   25053.29216467  .00009195  00000-0  57016-3 0  9997
2 43189  97.5748 317.4653 0010532 214.8663 145.1877 15.09917010384727
Ten-Koh
1 43677U 18084G   25053.74168440  .00006404  00000-0  52631-3 0  9991
2 43677  98.0869 221.7517 0010018 261.8177  98.1909 14.99496718344225
PO-101
1 43678U 18084H   25053.77671554  .00003199  00000-0  28058-3 0  9994
2 43678  98.0947 225.9277 0007581 285.6336  74.4048 14.97380195344392
QO-100
1 43700U 18090A   25053.36155689  .00000153  00000-0  00000-0 0  9999
2 43700   0.0157 163.7200 0001175 196.8119 307.9234  1.00270102 22866
MinXSS-2
1 43758U 18099A   25053.13585645  .00022955  00000-0  10480-2 0  9994
2 43758  97.5174 119.1201 0013522 170.3526 189.7971 15.20522388340616
AO-95
1 43770U 18099N   25053.57883194  .00015671  00000-0  86418-3 0  9998
2 43770  97.5084 112.9830 0010957 218.9023 141.1421 15.14010874340346
RANGE-A
1 43773U 18099R   25053.59611558  .00007874  00000-0  52377-3 0  9999
2 43773  97.4664 105.1221 0011470 191.2424 168.8550 15.07364192340097
MOVE-II
1 43780U 18099Y   25053.44134453  .00085210  00000-0  19020-2 0  9992
2 43780  97.4818 123.8638 0004355 180.5660 179.5583 15.43224763341121
SNUSat 2
1 43782U 18099AA  25053.43243667  .00014196  00000-0  83044-3 0  9994
2 43782  97.4777 110.4220 0013272 159.8572 200.3184 15.11886688340297
SnugLite
1 43784U 18099AC  25053.56498340  .00015448  00000-0  84582-3 0  9999
2 43784  97.4588 109.9345 0004337 154.0588 206.0862 15.14311213340427
ITASat 1
1 43786U 18099AE  25053.13278662  .00009712  00000-0  59005-3 0  9996
2 43786  97.4737 109.9265 0014479 212.3116 147.7228 15.10598280340221
EAGLET 1
1 43790U 18099AJ  25053.61414500  .00007386  00000-0  49011-3 0  9998
2 43790  97.4939 110.6549 0012300 189.3369 170.7632 15.07469625339946
ESEO
1 43792U 18099AL  25053.56591439  .00003696  00000-0  28713-3 0  9997
2 43792  97.4588 105.2441 0011096 159.3247 200.8429 15.01859728339751
CSIM
1 43793U 18099AM  25053.16776964  .00082240  00000-0  18276-2 0  9996
2 43793  97.4997 125.5792 0007089 157.7797 202.3759 15.43353566340928
JO-97
1 43803U 18099AX  25053.41572408  .00018559  00000-0  94264-3 0  9997
2 43803  97.4832 113.6380 0008837 153.2193 206.9498 15.16904911340502
Suomi 100
1 43804U 18099AY  25053.40892865  .00016604  00000-0  88787-3 0  9991
2 43804  97.4902 113.1869 0013960 156.5659 203.6212 15.15060625340450
ISAT
1 43879U 18111D   25053.49287460  .00027028  00000-0  11280-2 0  9991
2 43879  97.6031 325.9504 0008808 200.2014 159.8875 15.23599364337351
UWE-4
1 43880U 18111E   25053.56165316  .00022597  00000-0  10222-2 0  9997
2 43880  97.5967 325.1492 0011701 216.9750 143.0680 15.20864305337339
Sparrow
1 43881U 18111F   25053.48499587  .00028886  00000-0  11735-2 0  9996
2 43881  97.6152 328.4469 0005354 247.4032 112.6639 15.24515979337437
Prox-1
1 44339U 19036A   25053.36676876  .00018925  00000-0  26269-2 0  9998
2 44339  23.9987  44.3283 0007258 286.0903  73.8794 14.76342397302130
SONATE
1 44400U 19038Q   25053.48289603  .00078651  00000-0  96240-3 0  9999
2 44400  97.7098  68.9972 0006319 283.9680  76.0873 15.60113525312725
